User: anonymous   Login
Location: Observatorio Las Palmas
(29.0667°N, 110.9333°W)
Time: 17:20:10
(UTC-07:00)
Language:

NOAA 19 - Orbit

View from above orbital plane
View from above orbital plane
View from above satellite
View from above satellite

Ground track
Ground track

The orbit data is extracted from the following two-line orbital elements,

1 33591U 09005A   16206.57069089  .00000067  00000-0  61137-4 0  9999
2 33591  99.0427 163.6559 0014983 111.8504 248.4262 14.12091196384416
Epoch (UTC): 24 July 2016 13:41:47
Eccentricity: 0.0014983
inclination: 99.0427°
perigee height: 841 km
apogee height: 863 km
right ascension of ascending node: 163.6559°
argument of perigee: 111.8504°
revolutions per day: 14.12091196
mean anomaly at epoch: 248.4262°
orbit number at epoch: 38441

The dashed part of the orbit path shows where the satellite is in the earth's shadow,  

DLR